Lincoln County, Oregon, United States
Lat: 44.65N, Lon: 123.85W
Wx Zone: ORZ004
Local Info
Past Weather Observations for Tuesday, October 21, 2014

NOTE: This archive is for the closest National Weather Service station to Lincoln County. Information may differ from the station used for current weather conditions.

Click here for Long-term Archive

Time Weather Temperature Dewpoint Humidity Pressure Winds Precip Visibility
23:55
Overcast
Light Rain
57°F / 14°C 54°F / 12°C 88% 29.83 in
(1010 mb)
S 28.8 mph
(S 46 kph)
- 5SM
23:35
Mostly Cloudy
Light Rain
57°F / 14°C 54°F / 12°C 88% 29.83 in
(1010 mb)
S 18.4 mph
(S 30 kph)
- 5SM
23:15
Mostly Cloudy
Drizzle
57°F / 14°C 54°F / 12°C 88% 29.83 in
(1010 mb)
S 16.1 mph
(S 26 kph)
- 10SM
22:55
Mostly Cloudy
Light Rain
55°F / 13°C 54°F / 12°C 94% 29.83 in
(1010 mb)
S 16.1 mph
(S 26 kph)
- 10SM
22:35
Mostly Cloudy
Drizzle
55°F / 13°C 52°F / 11°C 88% 29.83 in
(1010 mb)
S 16.1 mph
(S 26 kph)
- 10SM
22:15
Mostly Cloudy
55°F / 13°C 52°F / 11°C 88% 29.83 in
(1010 mb)
S 15 mph
(S 24 kph)
- 10SM
21:55
Overcast
Drizzle
55°F / 13°C 52°F / 11°C 88% 29.83 in
(1010 mb)
SSE 11.5 mph
(SSE 19 kph)
0.01 in
(0.25 mm)
10SM
21:35
Overcast
Light Rain
55°F / 13°C 52°F / 11°C 88% 29.86 in
(1011 mb)
SSE 11.5 mph
(SSE 19 kph)
0.01 in
(0.25 mm)
7SM
21:15
Mostly Cloudy
Light Rain
55°F / 13°C 52°F / 11°C 88% 29.86 in
(1011 mb)
SSE 9.2 mph
(SSE 15 kph)
- 10SM
20:55
Mostly Cloudy
Light Rain
55°F / 13°C 50°F / 10°C 82% 29.86 in
(1011 mb)
SSE 15 mph
(SSE 24 kph)
- 10SM
20:35
Mostly Cloudy
Drizzle
55°F / 13°C 50°F / 10°C 82% 29.86 in
(1011 mb)
SSE 13.8 mph
(SSE 22 kph)
- 10SM
20:15
Partly Cloudy
Drizzle
55°F / 13°C 50°F / 10°C 82% 29.86 in
(1011 mb)
SSE 13.8 mph
(SSE 22 kph)
- 10SM
19:55
Partly Cloudy
55°F / 13°C 52°F / 11°C 88% 29.89 in
(1012 mb)
SSE 9.2 mph
(SSE 15 kph)
- 10SM
19:35
Clear
55°F / 13°C 52°F / 11°C 88% 29.89 in
(1012 mb)
SSE 9.2 mph
(SSE 15 kph)
- 10SM
19:15
Mostly Cloudy
Drizzle
55°F / 13°C 52°F / 11°C 88% 29.89 in
(1012 mb)
SSE 9.2 mph
(SSE 15 kph)
- 10SM
18:55
Overcast
Drizzle
55°F / 13°C 52°F / 11°C 88% 29.92 in
(1013 mb)
SSE 9.2 mph
(SSE 15 kph)
- 10SM
18:35
Overcast
Drizzle
55°F / 13°C 52°F / 11°C 88% 29.92 in
(1013 mb)
SSE 6.9 mph
(SSE 11 kph)
- 10SM
18:15
Overcast
Drizzle
57°F / 14°C 52°F / 11°C 82% 29.92 in
(1013 mb)
SSE 6.9 mph
(SSE 11 kph)
- 10SM
17:55
Overcast
Drizzle
57°F / 14°C 54°F / 12°C 88% 29.92 in
(1013 mb)
SSE 4.6 mph
(SSE 7 kph)
- 10SM
17:35
Mostly Cloudy
Drizzle
59°F / 15°C 54°F / 12°C 82% 29.95 in
(1014 mb)
S 10.4 mph
(S 17 kph)
- 10SM
17:15
Partly Cloudy
Drizzle
59°F / 15°C 52°F / 11°C 77% 29.95 in
(1014 mb)
S 8.1 mph
(S 13 kph)
- 10SM
16:55
Partly Cloudy
59°F / 15°C 52°F / 11°C 77% 29.95 in
(1014 mb)
SSE 9.2 mph
(SSE 15 kph)
- 10SM
16:35
Mostly Cloudy
59°F / 15°C 52°F / 11°C 77% 29.95 in
(1014 mb)
SSE 6.9 mph
(SSE 11 kph)
- 10SM
16:15
Mostly Cloudy
61°F / 16°C 52°F / 11°C 72% 29.95 in
(1014 mb)
SSE 9.2 mph
(SSE 15 kph)
- 10SM
15:55
Partly Cloudy
61°F / 16°C 52°F / 11°C 72% 29.98 in
(1015 mb)
SSE 10.4 mph
(SSE 17 kph)
- 10SM
15:35
Partly Cloudy
61°F / 16°C 52°F / 11°C 72% 29.98 in
(1015 mb)
S 13.8 mph
(S 22 kph)
- 7SM
15:15
Clear
61°F / 16°C 54°F / 12°C 77% 29.98 in
(1015 mb)
S 17.3 mph
(S 28 kph)
- 7SM
14:55
Partly Cloudy
61°F / 16°C 54°F / 12°C 77% 29.98 in
(1015 mb)
S 20.7 mph
(S 33 kph)
- 7SM
14:35
Partly Cloudy
Hazy
61°F / 16°C 54°F / 12°C 77% 29.98 in
(1015 mb)
S 16.1 mph
(S 26 kph)
- 5SM
14:15
Partly Cloudy
61°F / 16°C 54°F / 12°C 77% 29.98 in
(1015 mb)
SSE 17.3 mph
(SSE 28 kph)
- 7SM
13:55
Partly Cloudy
61°F / 16°C 52°F / 11°C 72% 29.98 in
(1015 mb)
S 23 mph
(S 37 kph)
- 10SM
13:35
Partly Cloudy
61°F / 16°C 54°F / 12°C 77% 29.98 in
(1015 mb)
S 21.9 mph
(S 35 kph)
- 7SM
13:15
Partly Cloudy
61°F / 16°C 54°F / 12°C 77% 30.01 in
(1016 mb)
S 18.4 mph
(S 30 kph)
- 7SM
12:55
Clear
63°F / 17°C 54°F / 12°C 73% 30.01 in
(1016 mb)
S 25.3 mph
(S 41 kph)
- 7SM
12:35
Clear
61°F / 16°C 54°F / 12°C 77% 30.01 in
(1016 mb)
S 19.6 mph
(S 32 kph)
- 7SM
12:15
Clear
61°F / 16°C 54°F / 12°C 77% 30.01 in
(1016 mb)
SSE 26.5 mph
(SSE 43 kph)
- 7SM
11:55
Clear
61°F / 16°C 54°F / 12°C 77% 30.01 in
(1016 mb)
S 21.9 mph
(S 35 kph)
- 7SM
11:35
Partly Cloudy
61°F / 16°C 54°F / 12°C 77% 30.01 in
(1016 mb)
S 21.9 mph
(S 35 kph)
- 7SM
11:15
Clear
61°F / 16°C 54°F / 12°C 77% 30.01 in
(1016 mb)
S 17.3 mph
(S 28 kph)
- 7SM
10:55
Clear
61°F / 16°C 55°F / 13°C 83% 30.01 in
(1016 mb)
S 13.8 mph
(S 22 kph)
- 7SM
10:35
Partly Cloudy
59°F / 15°C 54°F / 12°C 82% 30.04 in
(1017 mb)
S 11.5 mph
(S 19 kph)
- 7SM
10:15
Partly Cloudy
59°F / 15°C 54°F / 12°C 82% 30.04 in
(1017 mb)
S 17.3 mph
(S 28 kph)
- 7SM
09:55
Mostly Cloudy
57°F / 14°C 54°F / 12°C 88% 30.04 in
(1017 mb)
S 11.5 mph
(S 19 kph)
- 10SM
09:35
Mostly Cloudy
59°F / 15°C 52°F / 11°C 77% 30.04 in
(1017 mb)
S 13.8 mph
(S 22 kph)
- 10SM
09:15
Mostly Cloudy
59°F / 15°C 52°F / 11°C 77% 30.01 in
(1016 mb)
S 11.5 mph
(S 19 kph)
- 10SM
08:55
Partly Cloudy
59°F / 15°C 52°F / 11°C 77% 30.01 in
(1016 mb)
S 11.5 mph
(S 19 kph)
- 10SM
08:35
Partly Cloudy
57°F / 14°C 54°F / 12°C 88% 30.01 in
(1016 mb)
S 11.5 mph
(S 19 kph)
- 10SM
08:15
Clear
57°F / 14°C 54°F / 12°C 88% 30.01 in
(1016 mb)
S 13.8 mph
(S 22 kph)
- 10SM
07:55
Partly Cloudy
55°F / 13°C 54°F / 12°C 94% 30.01 in
(1016 mb)
S 12.7 mph
(S 20 kph)
- 7SM
07:35
Partly Cloudy
Fog And Mist
55°F / 13°C 54°F / 12°C 94% 30.01 in
(1016 mb)
S 11.5 mph
(S 19 kph)
- 5SM
07:15
Mostly Cloudy
Drizzle
55°F / 13°C 54°F / 12°C 94% 30.01 in
(1016 mb)
S 15 mph
(S 24 kph)
- 5SM
06:55
Overcast
Rain
55°F / 13°C 54°F / 12°C 94% 29.98 in
(1015 mb)
S 15 mph
(S 24 kph)
- 3SM
06:35
Overcast
Fog And Mist
55°F / 13°C 54°F / 12°C 94% 29.98 in
(1015 mb)
S 15 mph
(S 24 kph)
- 5SM
06:15
Overcast
Fog And Mist
55°F / 13°C 54°F / 12°C 94% 29.98 in
(1015 mb)
S 17.3 mph
(S 28 kph)
- 5SM
05:55
Mostly Cloudy
Fog And Mist
55°F / 13°C 54°F / 12°C 94% 29.98 in
(1015 mb)
S 15 mph
(S 24 kph)
- 5SM
05:35
Mostly Cloudy
Fog And Mist
55°F / 13°C 54°F / 12°C 94% 29.98 in
(1015 mb)
S 12.7 mph
(S 20 kph)
- 5SM
05:15
Overcast
Fog And Mist
55°F / 13°C 54°F / 12°C 94% 29.98 in
(1015 mb)
S 15 mph
(S 24 kph)
- 5SM
04:55
Overcast
Fog And Mist
55°F / 13°C 54°F / 12°C 94% 29.98 in
(1015 mb)
S 17.3 mph
(S 28 kph)
- 5SM
04:35
Mostly Cloudy
Fog And Mist
55°F / 13°C 54°F / 12°C 94% 29.98 in
(1015 mb)
S 15 mph
(S 24 kph)
- 5SM
04:15
Partly Cloudy
54°F / 12°C 54°F / 12°C 100% 29.98 in
(1015 mb)
S 12.7 mph
(S 20 kph)
- 7SM
03:55
Mostly Cloudy
Fog And Mist
54°F / 12°C 54°F / 12°C 100% 29.98 in
(1015 mb)
S 13.8 mph
(S 22 kph)
- 5SM
03:35
Partly Cloudy
54°F / 12°C 54°F / 12°C 100% 29.98 in
(1015 mb)
S 12.7 mph
(S 20 kph)
- 7SM
03:15
Partly Cloudy
Fog And Mist
55°F / 13°C 54°F / 12°C 94% 29.95 in
(1014 mb)
S 15 mph
(S 24 kph)
- 5SM
02:55
Mostly Cloudy
Fog And Mist
54°F / 12°C 54°F / 12°C 100% 29.95 in
(1014 mb)
S 12.7 mph
(S 20 kph)
0.04 in
(1.02 mm)
5SM
02:35
Overcast
Rain
54°F / 12°C 54°F / 12°C 100% 29.95 in
(1014 mb)
S 15 mph
(S 24 kph)
0.03 in
(0.76 mm)
5SM
02:15
Overcast
Light Rain
55°F / 13°C 54°F / 12°C 94% 29.95 in
(1014 mb)
S 15 mph
(S 24 kph)
0.01 in
(0.25 mm)
7SM
01:55
Mostly Cloudy
Light Rain
55°F / 13°C 54°F / 12°C 94% 29.95 in
(1014 mb)
S 18.4 mph
(S 30 kph)
0.02 in
(0.51 mm)
4SM
01:35
Partly Cloudy
55°F / 13°C 54°F / 12°C 94% 29.95 in
(1014 mb)
S 15 mph
(S 24 kph)
0.02 in
(0.51 mm)
7SM
01:15
Mostly Cloudy
Light Rain
55°F / 13°C 54°F / 12°C 94% 29.92 in
(1013 mb)
S 17.3 mph
(S 28 kph)
0.02 in
(0.51 mm)
4SM
00:55
Partly Cloudy
55°F / 13°C 52°F / 11°C 88% 29.92 in
(1013 mb)
S 16.1 mph
(S 26 kph)
- 7SM
00:35
Partly Cloudy
55°F / 13°C 52°F / 11°C 88% 29.92 in
(1013 mb)
S 17.3 mph
(S 28 kph)
- 7SM
00:15
Mostly Cloudy
Fog And Mist
55°F / 13°C 54°F / 12°C 94% 29.92 in
(1013 mb)
S 13.8 mph
(S 22 kph)
- 5SM
Time Weather Temperature Dewpoint Humidity Pressure Winds Precip Visibility


Weather for websites

WeatherForYou.com, LLC is not responsible for any damages or problems caused by this service. Current weather conditions are obtained from the closest station including government and personal stations which may have varying degrees of accuracy. Weather forecasts are derived from the NOAA NDFD. Like all things, this site belongs to Jesus Christ... He just trusts me to maintain it. If you have any questions or comments email webmaster@weatherforyou.com

Copyright © 2014, WeatherForYou.com LLC. All rights reserved.